Hourly Weather Roundup
Issued by NWS Central Illinois

Home | Current Version | Previous Version | Text Only | Print | Product List | Glossary On
Versions: 1 2 3 4 5 6 7 8 9 10 11 12 13 14 15 16 17 18 19 20 21 22 23 24 25 26 27 28 29 30 31 32 33 34 35 36 37 38 39 40 41 42 43 44 45 46 47 48 49 50
000
NZUS43 KILX 200810
HWRILX

AREA WEATHER ROUNDUP
NATIONAL WEATHER SERVICE, LINCOLN IL
300 AM CDT SUN APR 20 2014


CITY           SKY/WX    TMP DP  RH WIND       PRES   REMARKS
BLOOMINGTON    CLEAR     49  37  63 SE13      30.20F
CHAMPAIGN      CLEAR     45  38  76 E9        30.22S
DANVILLE       PTCLDY    46  37  68 E7        30.21S
DECATUR        CLEAR     45  38  76 SE8       30.20F
FLORA          NOT AVBL
GALESBURG      PTCLDY    54  40  59 SE6       30.16S
JACKSONVILLE   MOCLDY    55  39  55 SE5       30.19R
LACON          CLEAR     48  38  70 S3        30.18F
LAWRENCEVILLE  CLEAR     52  40  63 NE7       30.22S
LITCHFIELD     CLEAR     50  42  71 CALM      30.19S
$$


CITY           SKY/WX    TMP DP  RH WIND       PRES   REMARKS
LINCOLN        CLEAR     50  38  63 CALM      30.20R
MACOMB         PTCLDY    49  40  69 S5        30.19S
MATTOON        CLEAR     53  38  56 SE5       30.20F
MT CARMEL AP   CLEAR     52  43  71 NE3       30.21S
OLNEY-NOBLE AP CLEAR     52  37  58 CALM      30.21S
PARIS          CLEAR     50  39  66 E3        30.23S
PEORIA         PTCLDY    54  36  50 SE3       30.19F
PONTIAC        CLEAR     46  39  76 SE12      30.20F
RANTOUL        CLEAR     47  38  73 CALM      30.23S
ROBINSON       CLEAR     48  44  87 CALM      30.23S
SPRINGFIELD    CLEAR     56  36  47 SE6       30.19S
TAYLORVILLE    CLEAR     54  37  54 SE6       30.20R
$$

...REGIONAL REPORTS...


CITY           SKY/WX    TMP DP  RH WIND       PRES   REMARKS
CHICAGO O`HARE PTCLDY    47  30  51 S7        30.22F
KANKAKEE       CLEAR     46  35  66 E9        30.24F
MOLINE         CLEAR     55  38  52 S9        30.14F
MOUNT VERNON   CLEAR     45  34  65 N3        30.19S
PITTSFIELD     MOCLDY    57  43  59 S6        30.18S
QUINCY         CLOUDY    59  41  51 S9        30.15F
ROCKFORD       PTCLDY    47  37  68 S8        30.21F
$$


CITY           SKY/WX    TMP DP  RH WIND       PRES   REMARKS
BURLINGTON     PTCLDY    57  41  55 S8        30.14F
CEDAR RAPIDS   MOCLDY    57  40  52 S12       30.10F
DES MOINES     MOCLDY    61  44  53 S7        30.06S
KIRKSVILLE     CLEAR     50  41  71 SE6       30.13S
OTTUMWA        MOCLDY    58  39  49 S14       30.09F
ST LOUIS       MOCLDY    58  40  51 CALM      30.19R
$$


CITY           SKY/WX    TMP DP  RH WIND       PRES   REMARKS
TERRE HAUTE    CLEAR     47  37  68 E3        30.23F
EVANSVILLE     CLEAR     54  40  59 N5        30.20F
INDIANAPOLIS   MOCLDY    48  32  53 E8        30.25F
LAFAYETTE      PTCLDY    44  32  62 E9        30.25F
MADISON        PTCLDY    54  38  54 S12       30.15F
MILWAUKEE      PTCLDY    49  32  52 S13       30.21F
$$





USA.gov is the U.S. government's official web portal to all federal, state and local government web resources and services.